Regional Weather Roundup
Issued by NWS Spokane, WA

Home | Current Version | Previous Version | Text Only | Print | Product List | Glossary On
Versions: 1 2 3 4 5 6 7 8 9 10 11 12 13 14 15 16 17 18 19 20 21 22 23 24 25 26 27 28 29 30 31 32 33 34 35 36 37 38 39 40 41 42 43 44 45 46 47 48 49 50
000
NZUS01 KOTX 270910
RWROTX
EASTERN WASHINGTON/NORTHERN IDAHO ROUNDUP
NATIONAL WEATHER SERVICE, SPOKANE WA
200 AM PDT WED AUG 27 2014

Note: "fair" indicated few or no clouds below 12,000 feet with no
significant weather and/or obstructions to visibility.

...NORTHEAST WASHINGTON AND NORTHERN IDAHO PANHANDLE...

CITY           SKY/WX    TMP DP  RH WIND       PRES   REMARKS
SPOKANE INTL   CLEAR     65  42  43 SE7       30.03S
SPOKANE DOWNTO CLEAR     62  47  57 NE5       30.03S
COEUR D ALENE  CLEAR     57  48  72 E3        30.04S
DEER PARK      CLEAR     54  45  71 CALM      30.03S
SANDPOINT      CLEAR     52  52 100 CALM      30.04S

...SOUTHEAST WASHINGTON AND SOUTHERN IDAHO PANHANDLE...

CITY           SKY/WX    TMP DP  RH WIND       PRES   REMARKS
WALLA WALLA    CLEAR     69  43  38 E8        29.98F
PULLMAN/MOSCOW CLEAR     52  38  58 CALM      30.07S
LEWISTON       CLEAR     65  44  46 SE5       30.01S
LOWELL           N/A     54  51  90 NW3       30.11R

...COLUMBIA BASIN...

CITY           SKY/WX    TMP DP  RH WIND       PRES   REMARKS
EPHRATA        CLEAR     67  48  50 N6        29.96S
MOSES LAKE     CLEAR     61  48  62 N6        29.97S
TRI CITIES     CLEAR     61  54  77 CALM      29.95R
HERMISTON      CLEAR     59  47  64 E5        29.95S
PENDLETON      CLEAR     64  43  46 S10       29.99S

...EAST SLOPES CASCADES...

CITY           SKY/WX    TMP DP  RH WIND       PRES   REMARKS
THE DALLES     CLEAR     69  50  50 CALM      29.95R
YAKIMA         CLEAR     63  55  75 CALM      29.98S
ELLENSBURG     CLEAR     61  53  75 NE5       30.01R
WENATCHEE      CLEAR     74  52  46 NW7       29.96S
OMAK           CLEAR     65  49  56 CALM      29.97S

...SOUTHERN BRITISH COLUMBIA...

CITY           SKY/WX    TMP DP  RH WIND       PRES   REMARKS
PENTICTON      PTCLDY    75  54  46 SE7       29.94S
CRANBROOK      CLEAR     57  48  72 SW3       30.05S

...WESTERN MONTANA...

CITY           SKY/WX    TMP DP  RH WIND       PRES   REMARKS
MISSOULA       CLEAR     54  45  71 CALM      30.13S

...NEIGHBORING CITIES...

CITY           SKY/WX    TMP DP  RH WIND       PRES   REMARKS
SEATTLE        CLEAR     71  55  56 NE10      30.01S
CALGARY        PTCLDY    59  45  58 VRB3      29.96S



USA.gov is the U.S. government's official web portal to all federal, state and local government web resources and services.